Theta_e
315 317 319 322 322 323 324 324 324 324 324 324 323 323 324 323 324 324 323 323 323 323 323 323 322 322 322 321 321 321 321 322 322 322 321 321 322 322 321 321 320 320 319 319 320 320 319 318 318 318 319 318 317 316 315 315 314 315 315 316 316 316 314 312 310 309 310 312 311 312 310 311 308 309 307 304 301 300 298 299 300 300 299 299 298
313 315 317 319 320 321 322 323 324 324 323 323 322 323 323 323 323 322 323 323 323 323 323 323 322 322 321 321 321 321 321 321 321 321 320 320 321 322 321 320 319 319 319 318 319 319 319 318 317 317 318 317 315 312 313 314 314 314 314 315 317 316 317 315 312 310 310 307 308 313 310 306 304 305 307 304 300 297 297 296 296 297 298 297 297
311 312 314 316 318 320 321 321 322 322 322 322 321 321 321 321 321 322 322 322 322 323 322 322 322 322 321 321 321 321 321 321 321 320 320 320 320 320 321 319 319 318 317 318 318 318 317 317 317 317 317 315 313 312 311 312 313 314 315 315 315 315 314 315 313 310 308 308 307 306 306 304 308 305 300 299 298 299 298 295 296 297 296 295 295
310 312 313 314 315 317 319 320 319 320 319 320 319 320 320 320 320 321 322 321 321 321 322 322 321 321 321 320 320 320 320 319 319 319 320 319 319 320 319 319 319 318 318 318 317 317 317 317 317 316 315 314 313 312 311 311 312 313 313 313 313 314 314 312 313 312 307 307 300 307 307 306 302 296 297 295 295 295 296 295 295 295 294 294 293
308 310 311 313 313 315 315 316 317 316 318 318 317 318 318 318 317 319 319 319 320 318 318 319 319 320 320 320 320 319 319 319 319 319 319 318 319 319 319 319 319 318 318 318 311 317 317 317 317 316 315 315 314 313 312 311 312 312 313 313 312 313 311 311 310 309 308 307 303 298 295 296 293 294 296 295 292 292 292 292 293 293 293 293 293
305 306 308 310 311 311 313 313 315 316 317 317 316 316 316 315 316 316 317 319 317 316 317 316 318 318 318 319 319 318 317 317 318 318 318 318 318 319 319 318 318 319 318 318 318 317 317 317 317 315 314 314 314 313 313 313 312 313 313 313 312 310 310 309 309 308 308 309 306 301 294 298 295 293 292 293 294 292 291 290 290 291 290 290 290
304 306 307 308 309 310 312 313 315 315 314 314 314 313 314 312 313 314 312 314 314 314 313 314 314 315 316 316 317 317 317 316 317 317 318 319 319 318 318 318 318 318 318 318 318 318 318 318 317 316 315 315 314 313 313 312 313 312 312 312 309 308 308 308 304 303 303 302 298 298 296 293 295 296 290 290 291 292 294 292 293 289 289 289 288
304 305 306 307 309 311 312 311 309 311 310 309 311 310 311 311 312 311 310 313 313 313 314 314 312 313 314 314 314 313 313 314 315 317 317 318 318 318 318 317 317 317 317 318 318 317 318 317 317 317 317 316 315 315 314 313 311 311 310 309 308 307 307 303 298 298 297 296 298 297 294 296 290 288 287 288 290 289 290 293 295 292 288 288 289
303 304 304 306 308 306 304 305 307 310 307 309 310 311 311 311 311 311 311 311 312 312 311 311 310 311 311 310 310 311 314 315 316 317 317 318 319 318 318 317 316 316 316 316 317 317 317 317 317 317 314 305 304 305 306 306 312 311 310 308 307 306 305 301 300 297 296 296 296 292 292 293 293 291 289 289 291 296 293 290 292 293 289 288 289
301 302 304 304 302 303 302 304 307 305 308 309 310 309 309 309 309 309 310 309 309 309 309 309 311 312 313 313 313 313 315 317 308 306 308 317 318 318 317 316 316 315 314 314 315 315 316 317 316 303 301 299 299 301 302 302 303 309 311 308 307 305 302 299 298 298 297 296 296 295 294 295 294 293 293 292 291 289 288 289 290 290 288 288 288
296 298 300 299 300 300 303 305 304 306 307 305 304 305 307 305 305 306 305 306 309 309 311 313 313 312 313 314 315 315 316 316 305 305 305 306 313 316 316 316 315 314 314 314 313 312 314 315 315 305 301 298 300 298 300 301 300 301 302 302 302 308 302 298 298 297 296 297 296 295 296 296 295 294 294 294 291 292 293 290 290 288 289 289 290
295 295 295 296 299 302 303 303 304 304 303 305 304 303 301 302 304 304 303 302 306 305 309 314 315 313 314 313 314 314 315 306 305 304 303 304 304 313 316 315 314 314 313 313 314 313 311 311 310 311 309 309 308 303 299 297 298 299 299 300 300 301 303 303 300 296 295 296 295 295 296 296 295 294 295 294 293 292 292 290 290 289 288 289 289
293 294 295 297 298 300 299 301 301 301 301 300 300 300 301 304 305 306 308 307 301 304 308 309 311 312 311 312 312 312 312 305 304 303 302 302 302 304 314 314 313 313 313 313 312 312 311 308 307 308 310 297 299 307 307 302 295 296 296 296 297 298 300 300 300 303 300 297 297 296 296 295 295 295 294 293 294 293 290 289 289 289 290 290 290
294 295 295 297 297 297 297 298 298 297 297 297 298 297 299 303 302 303 303 301 303 305 303 305 307 308 309 310 310 310 310 304 302 302 301 301 301 302 310 313 313 313 312 312 311 311 311 308 306 305 304 301 301 303 304 301 300 298 296 296 297 295 294 296 297 296 298 301 298 298 297 296 297 295 295 295 293 292 290 289 289 289 289 290 290
293 293 294 294 294 294 295 295 295 295 294 294 296 296 297 294 294 296 298 298 301 303 303 301 303 303 305 306 307 308 310 302 301 300 300 300 301 300 307 310 311 312 312 311 311 311 311 309 306 305 302 301 300 299 299 299 298 298 297 297 297 297 297 297 297 297 296 298 297 298 297 296 297 296 297 295 296 296 294 292 290 290 288 285 284
293 293 294 293 294 295 295 294 293 293 292 292 293 293 292 293 294 291 293 294 295 295 296 298 300 300 301 302 303 305 307 301 300 299 299 300 300 302 305 307 308 309 310 310 310 310 310 308 305 304 303 301 297 296 297 297 297 294 293 294 295 295 296 295 296 296 296 297 297 297 296 297 297 296 294 295 293 289 288 287 288 287 287 286 286
292 292 293 294 294 295 294 294 293 293 292 293 293 293 292 292 290 289 292 292 293 294 296 296 297 297 296 297 300 302 302 299 298 298 298 299 299 302 303 304 305 307 308 309 310 308 306 306 306 307 305 304 298 297 297 296 296 293 294 293 293 293 295 294 293 294 294 294 295 295 295 296 296 296 296 295 291 290 289 288 287 287 287 285 285
291 292 293 294 295 294 294 294 293 292 291 292 293 292 290 290 291 290 291 291 292 293 295 295 296 296 296 296 297 298 300 297 297 297 297 297 298 302 302 302 303 303 305 307 308 307 303 295 297 304 304 303 298 296 297 295 296 295 294 293 292 292 293 290 288 288 291 292 292 292 293 294 294 295 295 294 292 290 291 290 288 287 288 287 286
291 292 293 293 294 295 293 292 292 291 290 290 290 290 290 291 289 288 289 290 291 290 289 292 293 293 294 295 291 295 297 295 295 296 296 297 296 301 301 301 301 302 303 304 303 301 300 295 293 298 301 300 298 297 297 295 298 295 295 293 293 293 295 288 288 287 286 286 287 288 288 289 291 291 291 292 291 290 292 290 288 288 288 286 284
292 291 291 291 291 290 293 293 291 291 289 289 289 290 289 289 289 288 288 289 289 288 289 289 290 290 290 291 293 294 295 295 292 295 295 296 296 298 300 299 299 300 301 301 301 298 298 298 295 295 298 299 298 297 296 295 297 296 294 294 293 295 294 289 289 289 287 288 287 287 288 287 287 286 287 287 288 288 287 286 287 288 288 285 283
289 288 288 288 288 288 288 289 290 290 289 289 288 288 288 288 287 287 288 288 287 288 288 288 289 289 289 289 290 292 294 294 294 293 295 295 296 295 299 300 301 300 299 298 299 300 299 298 299 295 296 297 297 296 296 295 295 295 295 295 296 293 290 290 288 287 288 287 287 286 286 286 286 286 286 285 285 285 285 285 285 286 286 285 282
286 285 286 286 286 286 286 286 285 288 288 288 288 287 286 287 287 287 287 288 288 287 287 287 288 289 289 288 288 290 289 290 292 292 293 294 295 295 296 298 300 299 298 298 299 299 300 300 298 295 294 294 295 296 296 296 295 294 296 296 296 293 290 290 289 288 288 287 286 286 285 285 285 285 285 284 284 284 284 284 284 282 283 284 284
284 284 284 284 284 284 285 285 286 286 286 286 287 286 285 286 286 287 287 286 287 287 287 287 287 288 288 289 289 289 289 290 289 290 291 292 293 294 294 296 297 297 298 297 298 299 300 299 297 292 293 293 294 295 296 296 294 295 296 296 295 294 291 291 289 289 288 287 286 286 285 285 284 284 284 284 284 283 283 283 282 281 280 279 279
284 284 284 283 284 283 283 284 284 284 285 285 286 285 285 284 285 286 287 287 287 287 287 287 287 288 288 288 288 288 289 290 289 289 289 291 293 293 294 294 294 295 296 297 299 299 299 298 295 292 292 292 293 294 295 294 293 295 295 295 293 291 291 290 289 288 287 286 286 286 285 285 285 284 284 284 283 283 282 281 280 279 278 277 277
283 283 283 284 284 284 284 284 284 283 283 285 285 284 283 283 285 284 284 285 286 286 286 286 287 287 287 288 288 287 288 288 288 288 288 289 291 292 293 293 294 294 293 294 295 296 294 294 293 292 291 292 292 293 293 293 293 293 293 293 290 292 291 290 289 288 287 286 286 286 286 285 285 286 285 284 282 280 279 278 277 276 276 275 274
284 284 284 284 284 284 284 285 285 285 285 283 283 284 284 284 284 285 284 285 286 286 285 285 286 286 287 287 287 288 288 287 288 288 288 288 288 290 291 291 290 291 291 292 291 292 292 292 291 290 290 290 291 291 291 292 291 291 291 290 291 291 291 290 288 287 287 287 287 286 286 286 285 284 283 282 279 278 277 276 276 275 275 275 273
284 284 284 285 285 284 285 285 285 285 285 284 284 285 284 284 284 284 285 285 285 284 285 285 285 286 286 287 287 287 287 286 287 286 287 287 288 288 289 289 288 289 289 290 290 291 290 290 290 290 289 289 289 289 289 289 289 290 290 290 291 291 290 290 289 288 288 288 287 287 287 285 283 281 280 280 278 278 278 277 276 275 275 275 274
283 283 284 284 284 285 285 288 286 285 286 285 286 286 285 285 284 285 285 285 284 284 285 285 285 286 286 286 285 286 285 285 286 286 286 286 287 288 288 288 289 289 289 290 290 290 290 288 289 289 289 289 289 289 289 290 289 289 290 290 290 290 289 289 288 289 289 289 288 288 285 281 280 281 280 280 279 278 278 277 276 275 276 275 273
284 284 283 283 284 283 283 283 284 284 285 284 284 285 285 285 286 286 285 286 286 286 286 286 287 286 286 286 286 287 287 286 286 288 287 288 288 287 287 288 288 288 288 290 288 288 288 289 289 289 289 289 289 289 289 289 289 289 289 289 289 289 289 289 288 288 289 288 287 285 281 281 281 280 280 279 279 278 278 278 277 276 276 276 274
284 285 285 285 285 284 284 283 283 283 284 284 284 284 285 286 287 287 286 285 287 288 288 288 288 286 287 287 286 288 288 288 289 289 289 289 289 290 289 289 289 288 288 290 288 288 288 288 288 289 289 289 289 290 290 289 289 288 288 288 288 288 288 288 288 288 288 288 286 283 281 281 280 280 279 279 278 278 278 278 277 277 275 275 274
283 283 284 285 285 285 284 284 285 285 285 284 282 283 283 285 286 287 287 286 287 287 288 288 289 288 287 287 288 289 289 288 289 289 289 289 289 289 290 290 290 290 290 288 288 287 287 287 288 288 288 289 289 290 290 289 289 288 288 287 287 287 287 287 288 288 287 287 285 283 282 281 280 280 279 279 277 277 277 278 277 276 276 275 274
284 283 283 283 284 284 283 284 284 284 284 284 284 283 284 285 285 286 287 287 287 287 287 287 287 288 288 288 286 286 287 288 288 288 287 287 287 288 289 289 290 290 290 290 287 287 288 288 288 288 288 288 289 289 289 289 288 288 288 287 286 287 286 287 287 287 286 286 284 283 282 282 281 280 280 279 278 277 277 276 276 275 275 276 275
284 284 284 285 284 284 284 284 284 284 284 284 284 283 284 283 284 286 284 285 286 287 287 287 287 287 287 287 287 287 287 287 287 287 287 287 287 287 288 289 290 290 290 288 287 287 288 288 288 288 288 288 289 289 289 288 288 288 287 287 286 286 286 286 286 286 286 286 285 283 283 282 281 280 279 278 277 276 276 275 276 275 275 275 274
283 284 284 285 284 284 284 284 284 284 283 283 284 284 284 284 283 283 284 286 285 285 286 286 286 286 287 287 287 287 287 287 287 287 286 286 287 287 288 287 289 290 289 288 288 287 288 288 288 288 288 289 289 289 288 288 288 288 287 287 287 287 286 286 286 286 285 285 284 283 282 282 281 279 278 278 277 277 276 275 275 275 274 274 274
282 282 283 283 284 284 284 284 284 284 284 284 284 284 284 284 284 284 283 283 284 285 285 286 286 286 287 287 287 287 287 287 287 287 286 287 287 288 289 287 287 287 288 288 288 288 288 288 288 288 288 288 289 289 288 288 288 288 287 287 287 286 285 285 285 285 285 284 284 283 282 281 280 280 278 277 276 275 275 275 275 275 274 274 274
283 282 282 283 283 283 283 284 284 284 284 284 284 284 284 283 283 284 284 284 284 284 285 285 284 286 286 286 286 287 287 287 287 287 287 287 287 288 286 286 286 287 287 287 287 288 288 288 288 288 289 288 289 289 289 288 288 288 288 287 286 285 285 284 284 284 284 284 283 282 281 280 280 279 278 277 277 276 275 275 275 275 275 274 274
283 283 282 283 283 283 283 283 282 283 283 284 283 283 283 283 283 283 283 284 284 284 284 285 285 285 285 286 286 286 286 286 286 286 287 287 288 287 287 287 287 287 287 287 287 287 287 288 288 288 288 288 288 289 288 288 288 287 287 287 286 285 285 285 284 284 284 283 283 281 280 279 279 279 278 276 276 276 275 275 275 274 274 274 274
281 281 282 282 282 282 281 281 281 283 283 283 283 283 283 283 283 283 283 283 284 284 284 284 284 285 285 285 285 285 285 285 285 285 286 286 286 286 286 286 287 287 287 287 287 287 287 288 288 288 288 288 288 288 288 288 287 287 286 286 286 285 284 284 283 284 283 282 281 280 279 279 279 278 278 277 276 275 275 275 274 274 274 274 274
280 282 282 282 282 281 281 281 281 281 281 281 282 282 282 283 283 283 283 283 283 283 284 284 284 284 285 284 284 284 284 284 285 285 285 286 286 286 286 286 287 287 287 287 288 287 287 288 288 288 288 288 288 288 287 287 287 286 286 286 285 284 283 283 283 282 282 281 280 280 279 278 278 278 278 277 276 275 275 275 274 274 273 273 273
278 278 279 280 280 281 281 281 280 280 280 280 280 279 281 282 282 282 283 283 283 283 283 284 284 284 284 283 283 283 283 285 285 285 285 285 286 286 286 286 287 287 287 287 288 288 288 288 288 288 288 288 288 287 287 287 286 286 285 285 284 282 282 282 282 281 281 280 279 279 278 278 278 277 277 277 276 276 275 274 274 274 274 274 273
276 276 277 278 279 279 279 280 279 280 280 280 281 281 281 282 282 282 282 282 283 283 283 283 284 285 284 285 285 285 285 285 285 284 285 285 285 285 285 286 286 287 287 287 288 288 288 288 288 288 288 287 287 287 286 286 286 285 284 284 284 282 282 282 281 281 280 279 279 278 278 278 277 277 276 276 276 276 275 275 274 274 274 274 273
274 275 275 276 277 277 277 278 278 280 279 280 280 280 281 281 282 282 282 282 282 283 283 283 284 284 284 284 284 284 285 285 284 284 284 285 285 285 286 286 287 287 287 287 288 288 288 288 288 288 287 287 286 286 286 285 285 284 284 283 283 281 280 280 280 280 279 279 278 278 278 277 277 277 276 276 276 275 275 274 274 274 273 273 272
274 274 274 274 275 275 276 276 277 277 278 278 279 279 280 281 280 281 281 281 281 281 282 282 283 283 283 283 284 284 285 285 282 284 284 284 285 285 286 286 286 287 287 287 288 288 288 288 288 288 287 287 286 286 285 285 285 284 283 283 282 281 280 280 279 279 279 278 278 277 277 277 276 276 276 275 275 274 274 273 273 273 272 272 272
272 273 273 273 274 274 275 275 275 276 276 277 278 278 279 279 279 279 279 279 280 280 281 281 281 282 282 282 282 283 283 283 283 284 284 284 284 284 285 285 286 286 287 287 288 288 288 288 288 288 287 287 286 286 286 286 285 284 283 282 281 280 280 279 279 279 278 278 277 277 276 276 276 275 274 274 274 273 273 273 272 272 272 271 271
271 271 271 271 272 272 272 273 274 274 275 276 276 276 277 277 278 278 279 279 279 280 280 280 281 281 281 281 281 280 281 282 282 282 282 283 283 283 284 285 285 286 287 287 287 287 287 287 287 286 285 284 284 284 284 284 284 284 283 282 281 279 279 279 279 279 279 278 277 276 276 275 275 275 274 274 273 273 272 272 271 271 271 270 270
269 269 269 270 270 271 272 272 273 273 274 274 274 275 276 276 277 277 278 278 279 279 279 280 280 280 280 280 281 280 281 281 281 281 281 281 282 282 283 282 282 283 284 285 284 284 284 285 285 284 283 282 281 282 282 282 282 282 282 282 282 281 281 280 280 279 279 278 277 276 276 275 275 274 273 273 273 272 272 271 271 271 270 270 270
266 267 268 269 269 270 271 272 273 273 274 274 275 275 276 276 277 277 278 278 278 278 278 279 279 279 280 280 280 280 280 280 280 280 280 281 282 282 281 280 280 280 280 280 280 280 281 281 281 281 281 280 280 280 280 280 281 281 281 281 281 280 280 280 279 279 278 278 277 276 275 274 273 272 271 271 271 271 270 270 270 270 269 269 269
264 265 266 267 267 268 269 270 271 272 273 274 274 275 275 276 276 277 277 277 278 278 278 279 279 279 280 280 280 281 281 281 281 281 281 282 282 282 281 279 279 278 278 277 277 278 278 278 278 278 278 278 277 278 278 278 279 279 279 279 279 279 278 276 278 278 277 276 276 275 274 273 272 271 271 271 270 270 269 268 268 268 268 268 268
263 264 265 265 266 267 268 269 270 270 271 272 273 273 274 275 275 276 276 277 277 278 278 278 279 279 279 280 280 280 280 280 281 281 281 281 281 280 279 278 276 276 276 276 276 275 276 276 275 276 276 276 276 276 276 276 276 276 276 276 275 274 274 275 275 275 273 274 274 273 272 271 270 270 270 269 269 268 268 268 267 266 266 267 266
262 264 264 265 266 266 268 269 269 270 270 271 272 272 273 274 274 275 275 276 276 277 277 278 278 278 279 279 279 279 279 279 280 280 280 279 278 277 276 275 275 275 275 274 274 274 273 273 273 273 273 273 272 273 273 273 273 272 272 273 272 273 273 273 272 271 272 272 272 271 270 269 269 268 268 268 267 267 266 266 266 265 265 265 265
263 263 264 265 265 266 267 267 268 269 270 270 271 272 273 273 274 274 275 275 275 276 276 277 277 277 278 278 278 278 279 279 279 279 278 277 275 274 273 273 273 273 273 272 272 272 271 271 271 271 270 270 270 269 269 269 269 270 270 271 271 271 270 270 270 270 270 269 270 269 269 268 267 266 266 266 266 265 265 264 264 264 264 264 263
Wind_Speed
12 12 11 12 12 13 13 12 13 12 12 13 14 13 12 12 12 11 7 10 10 11 11 12 12 12 12 12 12 12 12 12 11 11 12 12 11 11 11 12 13 12 10 11 11 11 12 13 12 12 10 11 10 9 9 9 7 7 7 7 8 6 7 8 9 8 5 4 5 4 2 3 3 4 5 4 3 3 4 2 2 1 1 2 3
11 11 10 11 12 13 12 10 11 11 12 12 13 13 12 11 10 8 11 11 10 12 12 10 10 11 11 12 12 12 12 13 12 11 12 12 12 10 11 13 12 12 11 12 13 11 12 12 12 12 11 12 10 9 9 8 8 8 8 8 9 8 7 8 8 7 10 4 6 4 4 1 4 3 6 6 4 3 3 3 1 1 1 1 1
8 8 8 9 11 10 9 9 9 11 12 11 12 12 10 10 9 11 11 10 9 11 11 10 10 11 11 11 12 12 13 13 12 12 13 13 13 12 12 13 13 13 13 14 13 11 11 12 13 11 9 10 10 9 8 9 8 10 10 8 10 8 7 7 6 8 7 7 4 4 5 4 7 6 3 3 4 5 5 3 3 3 2 2 2
8 9 10 10 9 8 9 9 10 10 11 11 11 11 10 9 9 10 10 9 10 9 9 9 9 10 11 11 12 12 12 12 12 12 13 13 13 14 13 12 13 13 14 14 13 13 13 12 13 12 10 11 11 9 8 8 8 8 9 8 8 9 8 8 10 10 7 7 4 5 5 6 5 0 2 2 4 4 4 3 3 3 2 2 2
6 7 8 9 9 10 10 9 10 11 11 10 11 11 11 10 9 10 9 9 8 8 7 8 9 10 11 12 12 12 12 12 12 12 12 11 13 13 12 12 13 13 14 14 13 13 13 14 13 11 11 12 11 10 8 9 8 8 8 7 7 7 7 8 8 7 8 8 4 2 1 2 1 2 3 5 2 1 1 3 4 4 3 3 3
7 7 6 8 8 9 9 9 11 11 12 11 11 10 9 8 8 8 8 9 7 8 9 8 9 10 10 11 11 10 10 11 12 12 12 11 11 12 11 12 13 13 14 13 13 13 13 13 12 10 11 13 12 10 9 10 9 10 11 10 8 7 9 8 8 9 10 9 7 5 3 5 4 3 2 3 4 3 2 2 2 3 3 3 3
6 7 7 7 7 9 10 11 11 11 10 9 8 7 7 7 7 8 7 7 8 8 7 9 9 9 10 10 10 10 10 9 10 11 11 11 12 12 12 13 13 13 13 13 13 13 13 13 12 12 13 13 12 11 10 9 10 12 11 10 9 9 9 9 8 9 9 7 6 6 5 5 5 6 2 1 1 2 5 3 5 3 3 5 5
6 7 7 8 8 10 11 9 7 8 6 6 6 7 7 7 7 7 7 8 9 9 9 9 8 8 9 9 9 8 8 8 10 11 11 11 11 12 12 13 13 13 13 12 12 13 13 13 13 13 14 13 12 11 10 11 8 9 8 7 8 9 10 8 7 7 6 6 7 7 5 6 2 0 2 2 1 3 5 7 8 5 5 5 5
6 6 6 8 10 6 4 4 5 7 5 6 6 7 8 8 8 8 8 8 9 8 8 8 8 8 7 7 7 7 8 10 10 11 12 12 12 12 13 13 13 12 12 12 11 12 11 12 13 13 14 15 16 14 12 12 10 11 9 8 9 9 8 6 7 7 6 6 7 4 4 5 6 6 5 5 8 10 6 7 7 5 3 3 4
6 6 7 7 3 3 4 4 5 6 6 8 8 7 7 7 7 8 8 8 7 7 7 6 7 8 8 8 7 7 9 9 13 18 16 13 12 12 12 12 12 12 12 11 11 12 12 12 12 17 17 17 17 18 18 18 17 14 10 9 9 9 9 8 7 8 7 8 9 7 8 9 9 8 8 8 5 2 5 6 7 5 3 3 3
5 5 5 3 3 4 5 6 6 7 7 6 5 6 6 6 6 7 6 7 8 7 8 8 9 8 9 10 10 11 11 11 16 16 17 18 14 11 11 11 11 11 11 12 12 12 11 12 10 13 15 15 15 18 18 19 19 18 17 16 13 12 10 9 10 8 8 8 7 8 10 11 9 8 10 8 6 8 8 7 7 4 6 5 6
5 4 4 4 5 6 7 6 7 6 5 6 6 6 5 6 6 6 5 6 6 5 8 11 10 9 9 10 11 12 13 15 16 16 16 18 17 13 10 10 10 10 11 12 11 10 11 11 10 9 10 12 11 11 14 16 17 17 18 17 18 19 18 14 11 9 9 8 8 10 9 12 7 8 8 6 7 7 7 6 7 7 7 6 4
4 5 5 6 6 6 5 6 6 5 5 5 5 5 6 6 7 7 9 6 3 5 7 6 8 8 8 10 11 11 11 14 16 16 16 16 17 15 11 11 11 11 11 12 11 11 10 10 10 10 10 15 11 11 11 12 14 15 15 16 17 18 17 19 18 14 10 11 12 11 12 8 8 9 9 9 7 9 7 6 6 6 7 6 6
5 5 5 6 6 6 6 5 5 4 4 4 4 5 6 8 6 4 3 3 5 7 6 8 8 8 9 9 9 9 10 12 15 15 16 17 17 15 12 12 12 12 12 12 11 12 12 11 10 10 8 8 9 11 9 9 9 9 9 9 9 12 14 17 18 18 14 13 12 14 11 9 11 9 10 8 9 8 8 9 7 7 8 9 5
3 4 4 5 4 3 2 2 2 2 3 4 5 5 6 5 4 4 4 5 7 9 8 8 9 8 8 8 9 11 12 13 13 14 16 17 17 14 11 12 12 12 11 11 12 13 12 12 11 11 9 10 10 11 10 9 8 9 10 11 11 10 10 11 11 9 9 9 10 11 8 10 10 8 7 8 11 11 12 11 12 10 4 3 4
3 3 4 2 2 1 1 2 3 3 4 4 5 6 5 6 7 5 5 5 5 5 6 6 7 7 7 7 9 12 11 13 13 13 15 15 16 12 11 12 12 12 12 12 11 11 11 11 11 11 11 11 13 17 14 10 10 10 11 11 10 9 11 12 12 12 11 10 10 10 8 9 9 8 8 9 7 4 4 4 4 5 6 5 6
3 2 1 1 1 2 3 4 5 5 5 5 7 7 7 7 7 5 6 6 7 7 8 8 7 7 7 8 10 11 10 11 12 13 14 15 13 10 11 11 11 12 13 12 13 11 10 11 12 12 12 13 15 17 17 15 10 12 12 11 10 8 12 7 8 11 12 11 10 9 8 9 10 12 13 14 11 10 7 7 7 7 7 7 5
2 2 1 1 1 3 4 5 5 5 4 6 6 5 4 3 4 4 6 6 8 9 8 8 8 8 9 10 10 11 12 11 13 13 14 14 13 11 10 10 11 11 12 13 12 10 11 16 15 13 13 14 14 18 19 16 12 12 10 11 10 11 10 5 3 3 4 7 8 10 10 10 11 12 14 15 16 13 11 11 9 9 9 8 8
5 4 3 1 1 1 2 4 4 4 4 4 4 4 4 5 3 3 4 4 6 4 4 6 6 7 7 9 10 12 11 10 13 14 14 14 12 10 9 9 11 12 12 13 10 8 9 12 19 17 15 13 16 18 20 17 13 12 13 9 12 13 13 8 8 7 4 4 2 4 3 6 7 8 9 15 17 14 10 8 8 9 9 7 6
5 5 5 4 4 4 1 1 1 2 3 3 3 4 3 2 4 4 4 5 6 6 6 5 7 7 5 7 8 10 10 9 7 13 13 15 16 11 8 10 12 13 11 12 10 9 10 10 13 20 21 18 17 19 19 21 15 11 9 11 12 18 7 9 9 9 8 9 7 7 7 5 4 4 4 6 7 7 5 5 8 8 8 8 8
5 4 4 4 4 4 4 3 2 1 1 2 2 2 3 4 3 4 5 4 4 5 5 5 6 7 5 6 6 7 7 9 8 10 13 14 15 15 11 13 12 10 10 9 10 11 11 11 10 12 17 17 16 18 19 20 17 11 11 13 15 4 9 8 9 10 7 6 6 6 6 6 5 5 5 5 5 4 4 4 5 6 6 7 7
4 4 4 5 4 5 4 4 3 2 1 1 1 2 2 2 3 4 5 4 5 5 4 5 5 6 5 5 5 6 5 8 8 8 11 13 14 17 13 13 11 10 11 11 11 11 12 9 8 9 13 15 15 16 18 17 19 11 15 19 11 11 9 6 7 8 7 6 6 7 7 7 7 6 6 6 6 6 4 4 4 4 3 4 8
3 3 4 4 4 4 4 4 4 4 4 3 1 3 3 2 2 2 3 4 4 5 4 4 5 7 6 5 5 6 5 6 9 9 10 11 13 15 18 15 13 11 12 13 12 11 9 9 8 10 14 15 16 16 15 18 17 16 20 16 16 16 11 7 7 8 8 8 8 9 9 8 8 8 8 7 6 5 5 4 4 6 5 4 5
2 4 4 4 4 3 3 3 3 3 3 2 2 3 4 3 2 3 4 5 5 5 5 4 5 6 7 7 4 5 6 6 7 10 10 13 14 16 17 18 17 12 10 12 11 9 10 8 7 9 11 13 15 16 16 16 13 18 17 16 14 13 8 7 8 9 9 9 10 10 10 9 8 8 8 7 7 7 5 4 5 7 7 6 6
3 4 4 3 3 2 2 1 2 2 2 1 1 3 3 3 3 3 3 3 4 5 5 4 6 6 7 8 6 5 5 5 5 8 12 13 15 16 17 18 17 17 14 13 9 9 9 9 8 10 10 12 14 15 14 18 20 17 17 16 14 8 9 9 9 9 10 12 11 10 9 10 10 9 8 8 7 6 6 5 6 6 6 8 7
5 4 3 3 2 1 2 1 1 0 1 1 2 3 3 3 3 4 4 5 5 5 5 5 6 6 7 7 7 7 5 5 6 6 7 9 11 14 17 17 17 18 18 15 14 14 14 11 11 10 10 11 10 9 9 11 15 19 19 15 10 10 9 9 9 11 12 11 11 11 9 7 7 6 8 9 8 7 7 6 6 5 6 7 7
3 2 2 2 2 3 4 4 3 1 1 2 2 3 3 3 3 4 5 5 4 5 6 6 6 7 8 7 7 6 6 5 6 5 5 6 6 7 9 10 13 14 12 11 12 12 13 10 7 7 7 11 13 13 12 11 10 11 10 10 10 10 10 11 11 12 11 10 9 7 7 7 7 8 9 9 6 6 8 6 6 5 6 6 7
3 2 1 1 1 0 1 2 3 3 3 2 2 1 1 3 3 5 5 5 4 5 5 6 6 7 7 6 6 6 6 4 5 6 6 6 6 6 6 6 6 7 8 9 9 9 8 7 7 5 5 7 8 7 8 7 8 7 9 9 9 9 10 11 9 9 10 10 9 8 7 9 10 9 8 8 8 7 7 8 7 6 7 8 7
7 6 4 1 1 0 1 1 1 1 1 1 2 3 2 3 4 5 5 5 5 6 6 7 7 7 6 7 7 8 6 5 5 7 5 8 7 6 6 7 7 7 10 11 7 6 5 7 7 8 8 9 8 8 7 7 8 8 8 8 9 9 9 9 12 11 9 8 8 9 9 10 9 8 9 8 8 8 8 6 7 7 6 6 7
8 9 9 8 8 6 3 1 1 2 3 4 3 3 7 8 7 6 6 7 11 13 10 8 8 6 6 7 5 7 9 7 5 7 8 8 9 12 12 11 9 8 8 10 8 7 6 7 8 9 9 9 10 10 10 9 9 8 8 7 7 8 9 9 9 8 7 8 7 8 9 10 9 9 10 9 8 8 8 9 9 9 9 8 8
7 8 8 9 9 9 8 9 8 7 6 5 4 2 2 5 11 13 12 10 9 11 11 13 14 12 8 8 8 11 13 13 13 13 11 9 8 9 11 12 12 12 11 6 6 8 7 8 8 7 8 8 9 9 7 8 8 7 6 6 6 7 7 7 7 6 6 6 6 7 9 10 11 11 11 10 10 9 8 7 7 8 8 9 8
5 6 6 7 8 7 8 8 9 9 8 7 7 6 8 8 5 6 10 11 12 12 13 14 15 15 15 14 9 7 10 12 12 11 10 7 7 7 9 10 11 12 11 11 8 8 7 8 8 8 7 8 8 6 6 6 5 5 4 5 6 5 6 7 4 5 6 6 8 9 9 9 9 10 9 9 9 9 9 9 8 8 7 7 7
5 5 5 6 6 6 6 7 7 7 8 8 8 7 8 7 9 10 4 7 11 12 13 14 14 15 15 14 15 13 12 11 10 9 10 11 10 9 9 10 10 10 9 8 8 9 7 8 8 7 7 8 7 6 6 6 6 6 6 7 7 8 8 7 7 9 9 9 9 9 9 9 9 9 8 9 10 10 10 9 8 7 7 8 6
4 5 6 6 6 6 6 6 6 7 7 7 7 7 7 7 8 6 10 11 5 5 8 9 10 11 11 12 12 12 12 12 11 9 8 7 8 9 8 6 7 9 9 8 8 8 7 7 8 7 6 7 6 6 6 6 6 6 6 7 7 6 7 7 8 9 8 8 8 8 8 8 8 10 9 9 8 8 9 9 9 9 9 9 9
4 6 8 7 5 6 6 5 6 6 6 6 7 6 7 6 6 7 8 7 9 11 10 5 6 8 8 8 11 13 12 11 10 9 8 8 8 8 7 5 5 4 7 8 8 8 7 7 7 6 5 6 6 5 6 6 6 7 7 7 7 7 7 8 9 8 8 8 8 8 9 9 9 9 10 11 10 10 9 9 9 9 9 9 9
7 5 5 6 6 6 6 6 6 6 6 7 6 7 7 6 7 7 7 7 8 9 10 8 5 6 10 11 12 11 11 10 10 9 9 9 9 8 5 6 5 6 6 7 7 8 7 7 7 6 6 6 5 6 6 6 7 7 7 7 8 8 8 9 9 9 9 9 9 9 9 8 8 8 8 8 10 10 9 9 9 9 9 9 9
9 9 9 8 7 7 6 6 6 7 7 7 6 7 7 7 7 7 7 7 8 7 8 9 9 8 6 5 7 9 11 10 10 9 10 11 13 9 7 6 6 6 6 7 6 6 7 7 6 7 6 6 6 5 5 6 6 7 7 8 8 8 9 9 10 10 10 9 9 9 10 10 10 10 10 10 8 8 8 8 8 9 9 10 9
7 7 8 8 8 8 7 7 7 8 7 6 6 6 7 7 7 7 7 7 7 8 9 8 7 8 9 8 5 5 5 6 6 6 7 8 8 8 9 8 8 8 8 7 7 7 8 7 6 7 7 6 6 5 5 6 5 6 7 7 8 9 11 10 10 10 9 8 8 9 9 9 9 10 9 10 10 10 9 10 10 10 9 11 9
6 8 11 12 9 8 7 6 7 7 7 7 7 7 8 8 7 7 7 7 7 7 8 8 8 8 7 6 6 3 1 3 4 6 5 6 6 6 6 8 8 9 9 9 8 8 8 8 7 7 7 7 7 6 6 6 5 6 7 7 8 7 8 8 8 9 9 9 9 9 9 9 9 9 10 10 10 10 10 10 10 10 11 10 9
10 8 9 13 10 10 9 8 8 6 7 6 7 6 7 7 7 8 7 8 9 9 8 9 10 8 5 4 5 3 5 8 7 6 6 6 6 6 6 7 8 9 9 9 10 10 9 9 8 8 8 8 7 7 6 7 7 7 7 8 8 8 9 9 9 9 10 9 9 9 10 10 10 10 9 9 9 10 11 11 11 11 10 10 9
9 9 9 9 11 11 9 9 8 8 7 7 8 8 8 8 8 7 7 8 9 9 10 10 10 9 6 7 9 8 8 9 8 6 7 7 6 7 7 7 8 8 8 8 9 9 10 9 9 9 8 8 8 8 8 7 7 7 8 8 8 8 8 8 8 8 8 8 9 9 9 9 9 10 10 9 9 10 9 9 10 9 9 9 9
10 10 11 10 11 10 10 10 10 11 10 10 9 9 9 9 8 8 9 9 10 10 11 11 11 9 8 11 11 11 10 9 8 8 8 7 7 8 8 8 8 8 8 8 8 7 8 9 9 9 9 9 9 9 8 9 8 8 8 8 8 8 8 8 8 8 9 8 9 9 9 9 10 9 9 9 9 9 9 9 10 9 9 9 9
11 10 10 11 10 10 10 11 10 10 10 10 9 9 10 10 10 10 10 11 11 11 11 12 12 9 9 10 10 11 9 9 8 9 9 8 8 8 8 8 8 8 8 8 7 7 7 8 8 8 10 11 11 10 10 10 10 10 9 9 9 9 9 8 7 8 7 8 8 9 10 9 9 9 9 9 9 9 9 10 9 9 9 8 9
10 11 11 11 11 10 10 9 10 10 10 11 12 12 11 10 10 10 10 10 11 10 10 11 11 11 10 9 8 8 8 9 9 9 10 9 9 9 9 8 8 8 8 8 8 7 8 9 8 8 7 7 8 10 10 10 10 10 10 10 9 9 9 9 8 9 9 9 9 10 10 10 10 9 9 9 10 10 10 10 10 9 9 8 9
8 9 9 9 9 9 10 9 9 10 12 11 9 10 10 9 10 10 10 10 11 11 10 11 11 11 11 10 8 8 9 9 9 9 9 9 9 9 8 8 8 8 8 8 8 8 8 9 9 8 8 6 6 7 8 8 9 10 10 11 11 10 10 10 10 10 10 10 10 10 10 10 11 10 10 10 10 10 10 10 10 9 9 9 9
9 9 11 10 10 10 10 9 10 10 10 10 10 10 10 9 9 10 11 11 11 11 11 11 10 10 10 11 10 9 9 9 9 9 8 8 9 9 8 7 7 7 7 8 7 8 8 9 8 8 8 8 7 6 6 7 7 8 8 9 10 10 10 9 9 9 9 10 10 10 11 10 10 9 11 10 9 9 9 9 9 9 9 10 8
9 10 10 11 11 12 12 11 10 11 10 10 10 11 11 11 10 10 11 12 12 12 12 12 11 11 11 11 10 10 9 9 9 9 10 9 9 8 7 6 6 7 6 6 6 6 7 7 7 7 7 7 7 7 7 6 6 6 7 7 7 8 8 8 10 11 11 11 10 10 10 10 10 9 10 10 9 9 10 9 10 10 9 8 9
9 10 10 11 11 12 12 11 12 14 12 11 11 11 11 11 11 11 11 11 11 11 11 11 11 11 11 11 10 11 10 11 10 10 10 10 9 8 7 7 7 7 6 6 6 5 5 5 5 5 6 6 7 7 6 6 6 6 6 6 7 8 11 12 10 10 9 10 10 11 11 10 10 10 10 10 10 10 10 9 8 7 8 8 7
9 9 9 10 10 10 11 11 11 11 11 10 12 12 11 10 11 11 11 11 12 12 11 11 11 11 11 11 11 11 11 10 11 11 10 9 9 8 8 7 7 7 6 6 6 6 5 5 5 5 5 5 5 6 6 6 6 5 6 5 8 14 16 16 11 11 13 11 10 10 9 10 11 10 10 10 9 8 8 8 8 8 8 8 8
9 9 10 10 10 10 10 10 10 10 10 10 9 10 11 11 10 9 11 11 12 12 11 11 11 11 11 11 11 11 11 11 11 10 10 9 8 7 6 6 6 6 6 6 5 5 4 4 5 4 4 5 5 4 4 5 4 5 5 6 11 15 15 16 16 18 14 10 11 10 11 11 10 10 9 9 10 10 10 9 8 8 8 9 8
9 10 9 10 10 10 10 10 9 9 9 9 9 9 8 8 8 7 8 9 10 10 11 11 11 11 11 11 11 11 11 11 10 9 8 7 6 6 6 6 6 6 5 4 4 4 4 4 4 5 5 5 5 5 5 4 4 5 8 12 14 15 16 15 13 15 17 13 11 11 12 13 13 12 10 10 9 10 10 10 9 9 8 8 8
Wind_Direction
205 209 202 205 202 203 204 200 201 201 202 204 208 212 211 209 210 209 191 200 197 198 199 197 193 193 193 196 196 196 199 201 199 200 204 206 204 205 205 206 212 216 212 213 212 211 214 218 218 217 210 214 219 214 212 209 205 210 211 212 221 212 207 222 237 254 262 222 208 218 241 151 214 197 182 167 144 123 101 115 126 157 173 202 204
208 208 204 203 204 205 204 197 197 198 202 204 209 211 211 207 205 196 202 205 194 200 199 195 192 191 194 198 198 198 200 202 201 199 203 204 205 202 206 206 210 214 210 215 213 213 213 216 219 216 207 213 212 211 208 210 214 217 221 219 226 226 215 227 240 248 256 242 235 215 211 240 203 218 187 180 179 145 151 151 103 111 158 307 256
210 207 208 209 209 204 196 196 193 197 201 205 210 211 211 208 198 201 205 203 199 199 198 192 190 191 196 198 199 202 203 204 202 202 204 203 204 206 207 206 209 210 211 215 213 209 212 215 219 212 204 211 214 212 200 209 208 213 219 215 220 217 210 214 229 237 244 249 223 214 205 221 215 220 184 153 149 159 157 171 179 183 178 210 248
207 202 203 206 202 194 196 196 194 198 203 206 209 208 206 206 197 201 203 198 198 202 194 192 190 193 197 199 202 204 205 205 204 205 206 204 205 208 208 208 210 212 214 215 213 209 211 214 219 211 202 209 213 209 204 199 200 205 210 211 212 217 216 211 218 235 226 235 226 204 214 206 248 337 156 138 169 164 173 158 149 165 175 185 199
217 216 209 205 200 195 197 192 196 200 204 204 209 205 203 200 194 200 198 200 200 191 197 190 193 195 201 203 205 205 206 205 205 207 209 207 207 209 210 210 212 215 216 216 213 210 211 214 215 205 201 210 212 213 205 208 209 208 218 218 216 216 210 207 214 213 228 239 252 234 181 203 210 214 190 186 210 154 125 183 195 195 198 199 190
216 215 213 205 204 199 196 193 198 201 204 207 206 201 196 195 195 199 193 199 196 196 195 198 197 203 206 208 208 207 204 205 206 206 206 206 207 210 211 212 215 217 218 218 214 211 213 215 211 200 200 207 213 211 207 214 213 215 219 218 213 206 212 217 213 218 226 236 226 231 215 194 227 218 235 210 188 212 269 272 264 222 196 232 228
210 208 209 207 205 206 200 201 201 203 203 204 195 192 194 195 192 197 193 193 196 201 201 200 205 202 209 208 208 206 206 202 205 206 204 204 207 209 211 214 217 218 220 219 216 215 215 215 212 207 209 212 214 211 207 209 214 218 216 212 200 202 214 222 213 217 215 217 224 222 211 239 197 227 250 219 160 193 210 247 266 223 209 201 235
204 205 202 209 210 212 211 206 199 197 194 188 188 189 189 191 195 193 187 198 200 199 200 201 203 199 204 203 204 199 198 198 204 206 206 205 204 210 210 214 217 220 221 220 217 216 215 214 214 213 214 215 213 213 203 208 205 216 213 200 197 207 218 216 208 207 207 212 220 221 211 213 235 1 71 98 174 286 219 207 230 220 218 214 206
200 204 207 212 219 219 213 204 194 189 184 182 186 189 189 190 188 189 190 198 199 199 195 190 191 200 203 198 196 193 195 203 203 204 207 208 208 213 214 215 217 220 221 221 219 218 216 214 215 216 215 213 207 204 206 206 204 216 214 198 203 206 211 206 207 203 211 210 231 212 212 221 219 184 183 195 198 219 196 184 228 232 191 179 234
191 201 210 218 218 201 194 187 188 187 187 192 194 191 189 188 188 194 200 197 195 192 183 182 188 195 197 202 200 199 208 211 210 207 204 206 211 216 218 221 220 222 222 224 223 221 220 219 218 214 210 208 208 206 205 208 209 209 202 191 197 201 205 204 207 208 201 210 218 201 216 226 216 202 207 215 213 130 125 174 209 213 168 224 277
198 204 223 217 202 199 196 205 196 199 203 193 190 188 191 186 187 195 196 191 191 190 186 193 203 200 201 205 211 216 220 220 216 211 210 208 210 218 219 222 221 223 223 223 224 221 223 221 221 212 210 210 214 214 210 205 205 208 204 195 195 198 203 204 212 198 202 215 210 205 220 228 220 202 215 211 188 192 200 188 196 162 186 183 216
195 213 217 212 211 206 207 203 203 208 193 198 190 187 178 181 193 192 186 195 198 179 198 211 212 211 213 214 217 220 224 223 219 217 214 214 213 217 220 223 221 222 223 224 225 222 221 219 217 208 207 210 201 206 218 221 216 212 210 207 204 205 202 199 207 206 206 210 211 217 210 225 212 199 213 195 206 199 207 183 190 188 191 203 200
189 207 216 211 216 213 208 205 209 208 208 197 190 184 192 199 206 204 209 204 174 200 219 219 222 221 218 220 225 225 231 227 224 222 219 218 219 218 225 222 221 224 223 224 223 223 220 216 216 215 214 209 209 212 208 212 217 219 219 218 214 210 210 211 207 203 188 206 218 219 211 204 203 215 197 197 178 200 178 191 198 204 201 199 209
194 212 211 216 214 210 206 204 209 209 201 194 184 192 202 214 218 228 231 201 212 222 225 226 228 228 229 234 240 243 241 237 229 226 225 224 221 216 229 228 229 228 225 222 221 221 219 214 212 217 214 204 206 210 209 202 196 203 217 224 224 226 225 224 224 222 207 209 208 219 212 186 213 204 206 180 171 196 179 203 193 195 199 208 196
245 245 240 238 227 229 225 220 213 203 199 197 197 205 209 211 207 207 201 210 216 223 225 231 234 236 236 234 240 242 241 237 232 225 224 224 223 218 228 229 233 233 229 224 221 221 219 214 210 212 207 208 207 200 195 196 195 204 212 219 222 220 219 223 220 214 212 213 208 218 203 201 215 208 190 182 193 197 191 195 191 192 160 77 57
241 251 258 331 8 343 226 235 224 211 202 199 206 221 220 209 207 198 201 220 232 233 240 228 232 233 238 241 245 249 248 240 234 226 222 221 218 219 226 230 233 234 233 228 225 224 221 212 208 210 211 213 211 200 197 189 194 205 214 223 223 222 226 223 210 208 210 208 209 210 209 205 203 197 183 185 180 129 96 72 96 110 140 165 181
247 260 355 49 206 201 193 207 213 208 201 201 217 222 219 219 212 183 195 209 218 224 228 225 222 224 227 228 238 250 255 244 240 232 223 218 213 222 222 228 233 234 236 234 232 227 220 214 213 217 217 224 210 193 195 185 200 206 215 220 223 222 236 210 196 205 217 218 218 217 209 207 195 188 183 174 166 154 132 139 172 155 162 186 203
330 1 332 250 219 202 199 201 216 216 206 217 232 244 247 250 233 202 206 211 221 223 221 226 224 222 224 227 225 238 245 238 236 237 228 220 212 221 222 226 234 234 241 237 235 230 219 211 213 216 218 222 196 191 189 187 201 209 214 218 219 227 235 169 152 175 191 203 202 199 194 191 185 178 174 171 164 158 157 183 180 169 192 193 195
340 334 317 309 343 272 212 203 210 212 218 243 251 261 247 235 230 183 220 230 244 252 242 244 245 239 234 236 233 235 249 244 233 233 228 225 217 228 225 227 235 235 235 241 234 232 226 217 215 215 218 216 192 192 190 189 204 202 210 205 221 229 227 161 179 172 165 148 136 130 161 176 175 172 179 176 175 181 188 177 153 177 188 191 168
357 4 1 0 2 1 345 226 220 205 224 235 232 233 229 220 224 205 220 214 238 238 235 236 244 248 243 243 243 241 252 256 241 241 233 226 217 220 228 230 235 238 237 240 239 233 229 229 224 222 220 214 199 192 191 192 200 202 185 206 217 232 187 168 192 183 185 190 182 183 179 172 169 165 166 175 185 190 187 158 172 181 190 181 178
359 354 350 359 7 5 2 16 8 292 221 224 217 214 207 214 210 196 222 229 230 247 240 247 253 260 251 251 251 257 258 267 261 245 244 235 229 220 231 230 237 238 241 241 236 237 234 230 233 220 219 215 201 196 195 196 197 190 196 213 223 190 130 181 187 185 186 189 183 180 176 172 177 170 172 179 185 186 179 175 172 184 180 177 176
348 351 356 359 359 357 358 352 5 351 335 32 338 289 262 209 203 207 209 213 228 239 239 252 261 267 264 256 259 265 260 258 270 261 252 246 239 229 233 241 237 238 243 241 238 239 238 235 235 214 211 214 214 207 202 199 199 199 214 220 209 161 174 165 166 180 193 184 183 187 185 180 175 177 179 184 187 185 179 174 140 121 147 180 177
351 8 19 18 4 351 343 346 332 336 326 320 279 264 257 235 223 193 208 222 234 249 252 254 265 275 273 259 251 251 249 246 241 249 249 250 248 245 242 246 245 239 245 248 243 243 245 243 233 199 197 201 207 210 207 205 203 213 218 210 206 195 175 180 176 185 189 189 186 197 191 185 180 181 181 183 184 173 169 160 130 111 95 79 64
3 41 41 31 15 5 342 325 315 311 295 293 299 281 297 290 273 228 219 219 231 242 242 236 250 265 272 275 251 242 242 240 232 228 237 237 240 241 245 246 248 249 252 256 256 255 255 247 238 207 198 199 204 206 210 208 212 217 216 214 204 191 182 183 183 188 186 189 199 199 196 189 185 183 183 178 172 168 147 125 105 86 90 83 70
116 89 79 63 40 4 340 325 313 298 274 239 255 260 269 262 266 267 230 243 240 257 269 255 263 270 279 279 282 259 245 235 236 224 225 231 236 241 246 246 245 245 252 257 264 263 270 266 238 220 211 204 207 210 217 221 223 224 217 211 199 191 193 185 185 180 194 203 202 200 195 192 189 185 166 147 131 115 115 98 80 74 91 90 79
71 75 73 84 79 117 98 119 166 241 279 215 212 224 227 232 222 241 216 223 223 233 250 245 255 260 267 271 270 270 257 243 243 236 226 231 235 238 241 244 248 245 247 256 254 262 263 264 263 250 227 216 213 219 228 229 229 230 227 213 202 201 190 190 187 190 203 201 199 199 192 170 177 159 144 142 143 154 140 136 128 128 131 120 96
104 91 70 56 26 26 47 34 30 76 140 173 192 206 207 212 217 240 229 239 242 238 246 247 254 259 263 264 268 269 266 255 253 248 231 227 230 237 241 249 252 257 259 260 261 258 258 256 254 249 226 215 211 215 220 221 221 223 220 209 206 200 195 196 194 196 202 198 198 190 174 165 134 135 149 153 147 154 163 138 132 144 138 135 121
29 59 110 138 86 60 60 11 9 0 339 344 341 300 208 195 207 226 228 229 232 249 243 245 246 252 262 266 272 271 262 242 232 238 230 217 227 218 226 233 238 237 250 255 254 259 262 255 248 242 223 225 221 224 222 212 213 211 214 209 207 204 202 199 199 204 204 197 190 178 157 148 158 162 154 160 160 159 163 163 157 152 154 139 129
346 351 355 43 68 238 226 207 217 221 260 278 266 247 251 287 260 263 253 218 215 240 252 258 257 249 247 264 277 286 279 261 240 216 223 216 215 216 212 221 224 227 235 246 259 261 249 244 245 236 224 222 222 224 222 218 222 217 216 212 208 204 198 194 203 205 195 186 188 168 157 156 161 155 159 157 162 164 168 161 162 149 158 160 157
343 344 344 345 341 344 335 297 232 225 210 203 220 265 259 227 211 214 261 241 229 226 219 238 241 242 257 253 229 256 276 274 280 301 305 285 248 231 231 227 221 226 233 234 231 245 239 244 240 238 238 234 232 228 222 220 227 222 221 218 214 210 208 208 209 202 189 194 174 161 162 162 162 165 168 166 158 165 172 168 166 165 162 169 158
342 336 339 336 333 331 330 328 328 329 321 310 297 274 254 251 243 229 224 239 227 231 241 243 254 258 249 271 261 248 262 274 280 287 297 296 278 256 243 240 237 234 227 222 225 225 238 239 243 239 242 243 244 245 241 234 231 225 217 201 208 212 209 209 210 198 194 184 165 165 166 174 174 173 172 169 165 162 164 166 161 169 172 166 160
330 323 322 314 321 321 320 318 319 321 316 318 317 317 319 320 311 257 240 228 236 240 233 233 236 239 237 233 245 266 253 253 259 267 275 288 286 272 259 247 243 236 228 208 227 232 227 237 239 234 231 238 240 241 239 237 232 223 213 204 212 209 206 213 186 171 181 177 179 180 181 181 176 174 171 166 161 163 164 164 169 171 168 168 166
310 311 307 305 302 305 304 306 307 310 310 315 317 318 313 313 317 324 303 258 250 240 233 232 231 228 228 232 229 230 246 261 266 267 270 278 281 273 260 255 249 241 225 218 231 240 234 235 242 237 229 239 238 232 232 223 218 210 202 206 204 198 198 193 176 190 193 192 184 187 182 179 173 171 169 162 164 166 169 170 170 168 164 158 157
287 292 303 303 303 297 296 291 295 297 296 296 296 301 295 291 291 287 309 319 312 275 276 269 256 248 250 241 236 236 241 247 255 258 256 254 259 264 257 252 243 236 214 227 229 242 238 239 242 241 241 242 242 231 228 223 213 213 208 209 208 198 195 182 189 195 192 188 188 185 179 178 171 167 165 166 169 163 166 170 166 167 173 170 162
296 287 283 285 283 287 289 286 279 276 279 278 284 283 280 283 276 288 284 282 294 305 307 294 274 254 255 262 249 242 239 240 240 237 234 233 237 246 256 261 254 232 222 227 231 237 241 242 246 243 238 240 238 229 231 222 214 212 209 205 197 188 180 188 195 193 192 190 185 182 179 174 174 174 170 167 167 171 174 170 174 173 166 162 159
321 311 303 295 290 286 283 284 281 280 281 282 276 273 277 278 283 276 272 273 282 287 293 291 283 268 252 252 257 252 246 240 230 219 209 206 213 210 218 232 235 234 228 229 229 236 236 242 244 247 243 243 234 230 226 219 213 211 206 198 196 189 186 188 190 193 195 191 188 176 169 169 169 168 168 171 175 172 167 169 167 169 166 163 163
326 325 324 319 312 302 296 288 285 278 274 273 272 275 268 269 263 263 263 269 271 268 272 293 308 299 272 267 263 258 255 252 246 230 213 203 200 195 204 209 222 231 228 230 225 233 238 238 233 243 242 246 243 232 225 224 211 205 200 197 194 191 192 190 192 193 190 188 180 172 174 174 172 173 170 171 171 166 163 161 162 165 168 164 157
316 313 313 316 315 311 305 296 287 283 279 270 266 264 270 267 264 262 269 270 265 271 282 284 275 280 295 294 234 222 253 257 261 261 246 227 216 209 199 199 204 216 228 224 219 222 233 235 227 235 239 234 241 232 227 228 213 202 195 195 194 201 194 194 195 191 190 182 173 170 172 173 173 171 169 169 169 167 166 165 162 164 165 165 167
327 323 321 321 314 304 291 289 290 291 290 289 285 286 284 284 282 279 275 273 276 273 272 272 271 272 268 273 285 270 273 267 231 246 238 235 238 238 229 214 208 211 215 216 213 214 221 227 220 218 227 226 228 221 211 211 202 200 196 195 198 190 187 190 189 189 186 185 177 175 174 174 172 173 172 168 167 166 165 165 167 167 167 169 175
322 320 318 319 316 314 313 310 304 293 282 281 280 267 272 276 278 283 285 287 286 286 283 281 281 273 261 254 257 241 252 266 265 262 258 247 239 241 245 245 235 227 222 216 210 208 213 218 211 210 213 214 212 210 203 196 196 195 193 198 195 193 193 191 191 188 189 184 180 177 175 174 171 168 170 172 167 165 165 167 170 169 170 170 168
321 316 316 314 311 308 305 301 297 294 294 289 288 287 281 280 280 278 278 280 282 286 282 280 279 281 275 258 250 230 241 256 260 252 247 248 247 242 238 246 255 260 255 240 227 216 212 209 203 206 206 205 201 197 196 194 191 189 195 198 198 198 196 197 194 192 186 179 179 176 175 169 166 166 172 172 166 163 162 161 161 166 167 166 160
322 322 319 320 320 315 309 307 305 303 299 296 295 291 291 289 287 287 286 286 286 285 286 284 281 283 279 262 255 242 239 249 248 250 251 239 242 242 238 239 240 245 251 260 265 259 241 221 210 201 200 198 195 196 190 193 189 188 192 194 196 193 194 197 192 188 182 179 176 175 171 169 169 172 165 157 158 160 159 164 165 163 164 162 159
320 316 315 312 314 311 309 306 308 306 303 301 296 296 293 293 292 289 286 284 282 282 284 283 285 287 279 271 260 247 245 246 248 247 251 248 247 244 243 239 237 236 239 244 243 244 250 255 245 227 207 197 191 190 192 195 189 187 188 192 192 190 191 190 188 185 180 173 172 168 167 166 165 162 161 162 160 159 162 159 160 160 162 156 155
313 312 310 306 305 302 299 300 301 299 296 296 295 295 295 293 287 285 285 283 282 280 277 278 283 286 286 278 262 250 249 249 247 248 249 248 249 248 248 244 242 244 242 240 235 232 232 236 240 247 243 223 205 193 193 188 185 189 187 185 189 187 185 183 183 181 176 175 172 169 169 168 164 160 159 160 159 160 159 158 157 158 156 156 153
306 302 301 300 297 295 296 293 291 293 294 293 290 291 291 292 291 291 289 286 287 283 280 279 281 282 283 280 267 255 256 255 252 251 252 250 250 250 249 247 244 244 245 242 234 228 231 231 232 225 220 225 221 209 201 192 188 187 187 181 182 184 185 182 184 181 178 175 170 168 167 165 166 164 162 162 162 159 158 160 159 152 152 155 159
305 304 300 297 296 295 296 295 294 291 292 292 292 293 290 288 285 287 286 287 286 286 287 284 283 281 280 280 277 269 265 265 261 257 257 255 253 253 251 247 243 239 240 240 233 227 229 227 223 220 211 203 196 204 207 200 192 187 181 186 183 184 183 178 167 164 169 170 170 172 168 165 164 164 161 157 158 156 156 153 153 157 156 155 154
309 302 302 299 300 297 297 298 297 295 294 293 293 293 293 293 291 287 283 282 284 284 284 283 285 282 281 278 278 276 272 267 267 266 261 260 259 257 250 238 237 237 237 236 234 230 230 229 224 215 207 197 193 194 191 191 195 194 189 181 181 168 168 163 164 168 168 168 166 163 164 161 155 151 151 147 146 148 148 153 154 151 149 149 148
302 301 297 298 297 298 296 300 300 300 297 297 295 292 291 292 291 289 288 285 282 279 279 279 279 280 280 279 277 275 274 272 269 266 264 261 259 257 245 237 233 232 230 230 228 228 224 222 218 207 197 192 189 190 189 184 188 185 185 180 175 171 158 156 158 154 154 154 157 158 155 152 149 148 150 150 149 148 146 144 139 136 138 139 142
306 300 300 300 298 299 300 301 300 302 303 303 300 296 293 290 289 289 288 286 285 281 279 279 279 278 276 276 275 274 271 270 268 266 263 259 253 244 237 233 232 231 225 228 222 216 216 210 202 200 192 186 188 182 179 178 174 175 172 173 163 154 152 150 149 148 141 141 139 141 140 142 143 143 140 138 136 132 128 128 132 133 131 134 139
302 301 298 300 298 300 298 297 298 297 299 295 292 292 293 290 289 288 290 290 288 286 283 281 279 279 280 280 278 275 272 268 266 263 260 254 244 234 232 232 233 230 227 223 214 201 201 196 188 179 159 144 133 143 153 158 159 151 153 152 149 146 144 140 137 137 138 138 138 138 137 134 133 132 130 130 130 129 130 132 133 133 138 142 147
299 301 299 299 300 300 300 296 292 289 285 283 282 280 280 278 275 275 279 283 286 288 288 288 286 287 284 282 279 277 274 271 267 265 259 249 239 226 226 229 228 225 217 202 182 182 175 164 155 147 127 117 105 100 95 115 132 144 141 140 138 134 132 132 134 134 130 128 127 129 133 135 135 132 133 132 131 130 134 133 135 139 143 145 143